Location: Unspecified
(0.0000°N, 0.0000°E)
Time: 04:10:53
(UTC+00:00)

BlueWalker 3 - Pass Details

Date: 10 March 2024
Orbit: 485 x 495 km, 53.2° (Epoch: 17 April)

Event Time Altitude Azimuth Distance (km) Brightness Sun altitude
Rises 19:18:06 0° 339° (NNW) 2,530 5.7 -17.0°
Reaches altitude 10° 19:20:22 10° 348° (NNW) 1,653 4.7 -17.5°
Enters shadow 19:23:17 34° 35° (NE) 804 2.6 -18.3°
